Location: Newark
(25.6108°S, 54.5803°W)
Time: 13:32:52
(UTC+00:00)

Transit 4A - All Passes

Search period start: 31 October 2020 00:00
Search period end: 10 November 2020 00:00
Orbit: 862 x 982 km, 66.8° (Epoch: 30 October)

Date Brightness Start Highest point End Pass type
(mag) Time Alt. Az. Time Alt. Az. Time Alt. Az.
31 Oct - 04:24:26 10° NNE 04:29:09 24° ENE 04:33:47 10° SE visible
31 Oct - 06:09:43 10° NW 06:15:12 36° WSW 06:20:36 10° S visible
31 Oct - 15:20:15 10° SSW 15:26:01 54° ESE 15:31:52 10° NE daylight
31 Oct - 17:08:37 10° WSW 17:11:50 15° WNW 17:15:05 10° NW daylight
01 Nov - 04:32:45 10° N 04:38:19 39° ENE 04:43:47 10° SE visible
01 Nov - 06:20:02 10° WNW 06:24:39 23° WSW 06:29:13 10° S visible
01 Nov - 15:29:24 10° SSW 15:35:19 87° ESE 15:41:21 10° NNE daylight
02 Nov - 04:41:33 10° NNW 04:47:32 65° ENE 04:53:23 10° SSE visible
02 Nov - 06:31:08 10° W 06:34:12 14° SW 06:37:15 10° SSW visible
02 Nov - 13:54:30 10° SSE 13:57:59 16° ESE 14:01:29 10° E daylight
02 Nov - 15:38:48 10° SSW 15:44:34 58° WNW 15:50:28 10° N daylight
03 Nov - 04:50:45 10° NNW 04:56:48 79° WSW 05:02:44 10° SSE visible
03 Nov - 14:02:43 10° S 14:07:31 25° ESE 14:12:21 10° ENE daylight
03 Nov - 15:48:29 10° SW 15:53:46 35° WNW 15:59:10 10° N daylight
04 Nov - 03:16:29 10° NE 03:20:14 17° ENE 03:23:56 10° ESE visible
04 Nov - 05:00:20 10° NW 05:06:07 48° WSW 05:11:49 10° S visible
04 Nov - 14:11:25 10° S 14:16:56 40° ESE 14:22:32 10° NE daylight
04 Nov - 15:58:36 10° WSW 16:02:56 21° WNW 16:07:20 10° NNW daylight
05 Nov - 03:24:18 10° NNE 03:29:22 28° ENE 03:34:21 10° SE visible
05 Nov - 05:10:19 10° WNW 05:15:31 30° WSW 05:20:40 10° S visible
05 Nov - 14:20:26 10° SSW 14:26:17 65° ESE 14:32:16 10° NNE daylight
05 Nov - 16:09:48 10° W 16:12:02 12° WNW 16:14:18 10° NW daylight
06 Nov - 03:32:49 10° N 03:38:34 47° ENE 03:44:11 10° SE visible
06 Nov - 05:20:51 10° WNW 05:25:01 19° WSW 05:29:07 10° SSW visible
06 Nov - 12:46:53 10° SE 12:48:46 11° SE 12:50:39 10° ESE daylight
06 Nov - 14:29:40 10° SSW 14:35:35 79° WNW 14:41:37 10° NNE daylight
07 Nov - 03:41:47 10° NNW 03:47:47 77° ENE 03:53:41 10° SSE visible
07 Nov - 05:32:33 10° WSW 05:34:36 12° SW 05:36:38 10° SW visible
07 Nov - 12:54:18 10° SSE 12:58:21 19° ESE 13:02:27 10° ENE daylight
07 Nov - 14:39:10 10° SW 14:44:49 48° WNW 14:50:36 10° N daylight
08 Nov - 02:09:19 10° NE 02:11:20 12° ENE 02:13:21 10° E night (unlit)
08 Nov - 03:51:06 10° NNW 03:57:05 66° WSW 04:02:57 10° SSE visible
08 Nov - 13:02:44 10° S 13:07:51 30° ESE 13:13:01 10° ENE daylight
08 Nov - 14:48:58 10° SW 14:54:00 29° WNW 14:59:08 10° NNW daylight
09 Nov - 02:16:09 10° NNE 02:20:27 21° ENE 02:24:41 10° ESE visible
09 Nov - 04:00:50 10° NW 04:06:25 41° WSW 04:11:57 10° S visible
09 Nov - 13:11:33 10° S 13:17:15 47° ESE 13:23:01 10° NE daylight
09 Nov - 14:59:20 10° WSW 15:03:09 18° WNW 15:07:01 10° NW daylight
